Weather past 2 weeks in Jamestown, Saint Helena

Now
64 °F

Mild.


Feels Like: 64 °F
Forecast: 71 / 73 °F
Wind: 15 mph from Southeast

Location: Saint Helena Island

Current Time: Dec 27, 2014 at 12:17:23 PM

Latest Report: Dec 27, 2014 at 11:00 AM


Visibility: N/A

Pressure: 30.01 "Hg

Humidity: 95%

Dew point: 63 °F

Location of JamestownLocation

Historic Weather in Jamestown — Graph

°F

Jamestown temperature yesterday

Maximum temperature yesterday: 69 °F (at 10:00 AM)
Minimum temperature yesterday: 62 °F (at 12:00 AM)
Average temperature yesterday: 65 °F

Past Weeks' High & Low Weather Summary

 TemperatureHumidityPressure
High71 °F (Dec 19, 1:00 PM)100% (Dec 14, 10:00 AM)30.13 "Hg (Dec 14, 10:00 AM)
Low60 °F (Dec 21, 6:00 AM)59% (Dec 18, 1:00 PM)29.96 "Hg (Dec 27, 4:00 AM)
Average64 °F85%30.06 "Hg
* Reported Dec 12 11:00 AM — Dec 27 11:00 AM, Jamestown, Weather by CustomWeather, © 2014

Note: Actual official high and low records may vary slightly from our data, if they occured in-between our weather recording intervals... More about our weather records

Advertising

Jamestown weather history for previous 24 hours

 ConditionsComfort  
Time TempWeatherWind HumidityBarometerVisibility
11:00 AM
Dec 27
64 °FMild.15 mph95%30.01 "HgN/A
10:00 AM64 °FMild.14 mph93%30.02 "HgN/A
9:00 AM62 °FMild.12 mph98%30.03 "HgN/A
8:00 AM62 °FCool.12 mph98%30.02 "HgN/A
7:00 AM62 °FCool.10 mph96%30.02 "HgN/A
6:00 AM60 °FCool.16 mph100%30.00 "HgN/A
5:00 AM62 °FMild.12 mph100%29.98 "HgN/A
4:00 AM62 °FCool.12 mph100%29.96 "HgN/A
2:00 AM62 °FCool.12 mph99%29.98 "HgN/A
1:00 AM62 °FMild.10 mph98%30.01 "HgN/A
12:00 AM63 °FMild.10 mph100%30.03 "HgN/A
11:00 PM
Dec 26
63 °FMild.10 mph99%30.05 "HgN/A
10:00 PM63 °FMild.13 mph100%30.05 "HgN/A
8:00 PM63 °FMild.14 mph99%30.03 "HgN/A
6:00 PM63 °FMild.13 mph100%30.00 "HgN/A
5:00 PM66 °FMild.15 mph87%29.99 "HgN/A
4:00 PM67 °FMild.14 mph87%29.99 "HgN/A
3:00 PM67 °FMild.15 mph84%30.00 "HgN/A
2:00 PM68 °FMild.13 mph81%30.02 "HgN/A
1:00 PM67 °FMild.15 mph80%30.04 "HgN/A
12:00 PM68 °FMild.14 mph80%30.05 "HgN/A
Weather by CustomWeather, © 2014

See weather overviewHow to use our weather pages